This is the latest recevied weather packets stored in our database for station/object WE0DX-1. If no packets are shown the sender has not sent any weather packets the latest 10 day(s).
| Time | Temp. | Humidity | Pressure | Rain* | Wind** | Luminosity | Snow |
|---|---|---|---|---|---|---|---|
| 1777735705 | 13.89° C | 38% | 1021.3 hPa | 0 mm | - | 633 W/m² | - |
| 1777735402 | 13.33° C | 40% | 1021.3 hPa | 0 mm | - | 617 W/m² | - |
| 1777735100 | 13.89° C | 39% | 1021.1 hPa | 0 mm | - | 637 W/m² | - |
| 1777734796 | 12.78° C | 41% | 1021.5 hPa | 0 mm | - | 626 W/m² | - |
| 1777734494 | 13.33° C | 42% | 1021.4 hPa | 0 mm | - | 582 W/m² | - |
| 1777734190 | 12.78° C | 44% | 1021.3 hPa | 0 mm | - | 553 W/m² | - |
| 1777733886 | 12.78° C | 44% | 1021.5 hPa | 0 mm | - | 528 W/m² | - |
| 1777733583 | 12.78° C | 47% | 1021.3 hPa | 0 mm | - | 500 W/m² | - |
| 1777733279 | 12.78° C | 45% | 1021.1 hPa | 0 mm | - | 475 W/m² | - |
| 1777732977 | 12.78° C | 47% | 1021.3 hPa | 0 mm | - | 455 W/m² | - |
| 1777732672 | 12.22° C | 47% | 1021.4 hPa | 0 mm | - | 423 W/m² | - |
| 1777732370 | 12.22° C | 48% | 1021.4 hPa | 0 mm | - | 400 W/m² | - |
| 1777732067 | 12.22° C | 49% | 1021.2 hPa | 0 mm | - | 379 W/m² | - |
| 1777731764 | 12.22° C | 50% | 1021.2 hPa | 0 mm | - | 350 W/m² | - |
| 1777731461 | 11.67° C | 50% | 1021.1 hPa | 0 mm | - | 337 W/m² | - |
| 1777731159 | 11.67° C | 51% | 1021.4 hPa | 0 mm | - | 319 W/m² | - |
| 1777730857 | 11.67° C | 52% | 1021.1 hPa | 0 mm | - | 305 W/m² | - |
| 1777730555 | 11.11° C | 51% | 1021.4 hPa | 0 mm | - | 285 W/m² | - |
| 1777730250 | 11.11° C | 55% | 1021.2 hPa | 0 mm | - | 275 W/m² | - |
| 1777729947 | 10.56° C | 55% | 1021.2 hPa | 0 mm | - | 154 W/m² | - |
| 1777729643 | 10° C | 58% | 1021.3 hPa | 0 mm | - | 197 W/m² | - |
| 1777729340 | 9.44° C | 59% | 1021 hPa | 0 mm | - | 223 W/m² | - |
| 1777729036 | 9.44° C | 60% | 1021.2 hPa | 0 mm | - | 114 W/m² | - |
| 1777728733 | 8.89° C | 62% | 1021.2 hPa | 0 mm | - | 108 W/m² | - |
| 1777728430 | 8.89° C | 62% | 1021 hPa | 0 mm | - | 50 W/m² | - |
* Rain latest hour (hover to see other rain measurements)
** Current wind speed in m/s (hover to see current wind gust speed)